Jackpot

Texas Poker Multi Jackpot System

Kini Telah hadir Jackpot SUPER ROYAL FLUSH

Kini Telah hadir Jackpot 2000 (khusus table VIP keatas).

Jackpot hanya dapat di beli di awal sebelum periode tersebut berjalan dan jika berhasil maka anda dapat melihat di sisi kiri bawah atau kiri atas akan terdapat notifikasi bahwa jackpot anda berhasil di beli.

Jika anda membeli jackpot di tengah permainan maka pembelian jackpot akan berlaku untuk periode selanjutnya.

Ikutilah global jackpot yang tersedia di system kami, dengan system jackpot terbaru dan pertama di indonesia, anda dapat membeli jackpot dengan harga 100 rupiah saja dan menangkan hadiahnya hingga puluhan juta rupiah.

Jackpot bukanlah suatu keharusan untuk dibeli, namun kami memberikan suatu fitur tambahan untuk member tercinta dari www.majukp.net.

Terdapat tiga pilihan harga jackpot yang bisa anda beli yaitu :100,500,1000 dan 2000(khusus table VIP Keatas) rupiah.

Hadiah dari Multi jackpot system www.majukp.net

  1. full house x 10 harga jackpot yang anda beli.
      (contoh:anda membeli 1000 maka:1000 X10 = 10.000)
  2. four of kind x 250 harga jackpot yang anda beli
      (contoh:anda membeli 1000 maka:1000 X250 = 250.000)
  3. Straight flush x 1200
      (contoh:anda membeli 1000 maka:1000 X1200 = 1.200.000)
  4. Royal flush x 10000 harga jackpot yang anda beli
      (contoh:anda membeli 1000 maka:1000 X10000 = 10.000.000)
  5. SUPER ROYAL FLUSH x 30000 harga jackpot yang anda beli
      (contoh:anda membeli 1000 maka:1000 X30000 = 30.000.000)

Note: Untuk mendapatkan jackpot di satu periode, pemain harus menyelesaikan permainan di periode tersebut, minimal 2 pemain. Jika semua pemain 'fold' jackpot tidak akan diturunkan.

Kondisi kartu

  1. full house adalah kondisi kartu dimana kartu anda dan kartu tengah dengan total 7 kartu bisa mendapatkan nilai 5 kartu dengan kombinasi 1 tris(three of kind) dan 1 pair, contoh 3 kartu 10 dan 2 kartu 5
  2. Four of kind adalah kondisi kartu dimana kartu anda dan kartu tengah dengan total 7 kartu bisa mendapatkan nilai 5 kartu dengan kombinasi 4 kartu yang sama jumlah dan 1 kartu apapun juga contoh anda mendapatkan 4 buah kartu angka 3 dan 1 kartu apapun.
  3. Staright flush adalah kondisi kartu dimana kartu anda dan kartu tengah dengan total 7 kartu bisa mendapatkan nilai 5 kartu dengan kombinasi seri / staright dengan kembang yang sama contoh : urutan kartu dari angka 5, 6, 7, 8 , 9 10 dengan kembang yg sama misalnya as hati
  4. Royal flush adalah kondisi kartu dimana kartu anda dan kartu tengah dengan total 7 kartu bisa mendapatkan nilai 5 kartu dengan kombinasi seri / staright dengan kembang yang sama tetapi kartu tersebut haruslah dimulai dari 10. contoh 10, Queen, Jack, King dan aces dengan kembang yang sama
  5. Super Royal flush adalah kondisi kartu dimana Kedua kartu anda digabung dengan 3 kartu pertama meja haruslah royal flush. contoh kartu anda 10,Queen kembang sama dan 3 kartu pertama meja adalah Jack, King dan aces dengan kembang yang sama

Demikian adalah penjelasan dari Multi Jackpot www.majukp.net terima kasih dan selamat bermain salam hoki dari kami

Texas Poker Jackpot Winner

TOP SUPER ROYAL FLUSH
No.TanggalNamaPriceWin
117/01 03:47T4R1K188Super Royal flush3,000,000
217/01 02:01PAYAKUN25Super Royal flush6,000,000
316/01 23:41MUNIO11Super Royal flush15,000,000
416/01 19:18VIRGI369Super Royal flush6,000,000
516/01 16:57FE6878CASuper Royal flush15,000,000
TOP ROYAL FLUSH
No.TanggalNamaPriceWin
117/01 09:45SAWILGO11Royal flush1,000,000
217/01 09:18SONI843Royal flush1,000,000
317/01 08:27EF79296DRoyal flush5,000,000
417/01 08:02E86E0803Royal flush2,000,000
517/01 07:27BOTOL507Royal flush1,000,000
TOP STRAIGHT FLUSH
No.TanggalNamaPriceWin
117/01 09:49NINGRAT888Straight Flush600,000
217/01 09:49SANSAN53Straight Flush600,000
317/01 09:48STENKGIL20Straight Flush1,200,000
417/01 09:47YAI72Straight Flush120,000
517/01 09:46NURMAYA69Straight Flush1,200,000
LATEST JACKPOT
No.TanggalNamaPriceWin
117/01 09:53SOREZORE90Full House5,000
217/01 09:53KINGPOKEFull House20,000
317/01 09:53P4UNK77Full House20,000
417/01 09:53XZULFull House5,000
517/01 09:53MOON_BNN99Full House5,000
617/01 09:53CB77AGUS999777Full House2,000
717/01 09:53LARC20Full House10,000
817/01 09:53MEIYENIFull House2,000
917/01 09:53DT_POILISTFull House5,000
1017/01 09:53SUTIL21Full House500
1117/01 09:53RAJAKI90Full House1,000
1217/01 09:53DAYAT27Full House1,000
1317/01 09:53FIKI110587Full House1,000
1417/01 09:53SH4BUUUFour Of A Kind12,500
1517/01 09:53AAKKQQJ12Full House2,000
1617/01 09:53GOYANG111Full House2,000
1717/01 09:53FYONGFull House2,000
1817/01 09:53BERKAH35Full House2,000
1917/01 09:53GADAMATI88Full House1,000
2017/01 09:53PUTRIALDAFull House5,000
2117/01 09:53RANGER07Full House10,000
2217/01 09:53CINGIRDC04Full House10,000
2317/01 09:53IBAN02Full House20,000
2417/01 09:53AKEP13Full House1,000
2517/01 09:53MLD48Four Of A Kind250,000
2617/01 09:53TASLIMUNFull House2,000
2717/01 09:53CC170845Full House2,000
2817/01 09:53JORE2018Full House5,000
2917/01 09:53DYV8A2XQ91Full House1,000
3017/01 09:53L4L3NOFull House5,000
3117/01 09:53MR_898Full House5,000
3217/01 09:53BIAWAK808Full House1,000
3317/01 09:53TAMUK10Full House5,000
3417/01 09:53PANJISP30Full House10,000
3517/01 09:53BAYRUDFull House2,000
3617/01 09:53NAYAKAFull House20,000
3717/01 09:53THN18Full House10,000
3817/01 09:53D_RFull House2,000
3917/01 09:53BANGO114Full House10,000
4017/01 09:52BABIKAWINFull House2,000
4117/01 09:52MASSTERR88Full House2,000
4217/01 09:52FHADIL01Full House10,000
4317/01 09:52I985Full House2,000
4417/01 09:52TEMPOYAK21Four Of A Kind50,000
4517/01 09:52RHOBERTFull House2,000
4617/01 09:52SAPRANOSFull House10,000
4717/01 09:52GGAGFull House10,000
4817/01 09:52NEWKINGCOBFull House20,000
4917/01 09:52M2KKNTLFull House5,000
5017/01 09:52SN4F1D1W80Full House2,000

Domino Multi Jackpot System

Jackpot hanya dapat di beli di awal sebelum periode tersebut berjalan dan jika berhasil maka anda dapat melihat di sisi kiri bawah atau kiri atas akan terdapat notifikasi bahwa jackpot anda berhasil di beli.

Jika anda membeli jackpot di tengah permainan maka pembelian jackpot akan berlaku untuk periode selanjutnya.

Ikutilah global jackpot yang tersedia di system kami, dengan system jackpot terbaru dan pertama di indonesia, anda dapat membeli jackpot dengan harga 100 rupiah saja dan menangkan hadiahnya hingga puluhan juta rupiah.

Jackpot bukanlah suatu keharusan untuk dibeli, namun kami memberikan suatu fitur tambahan untuk member tercinta dari www.majukp.net.

Terdapat tiga pilihan harga jackpot yang bisa anda beli yaitu :100,500 dan 1000 rupiah.

Hadiah dari Multi jackpot system www.majukp.net

  1. Murni Kecil x 50 harga jackpot yang anda beli.
      (contoh:anda membeli 1000 maka:1000 X 50 = 50.000)
  2. Murni Besar x 50 harga jackpot yang anda beli
      (contoh:anda membeli 1000 maka:1000 X 50 = 50.000)
  3. BALAK x 100 harga jackpot yang anda beli
      (contoh:anda membeli 1000 maka:1000 X 100 = 100.000)
  4. ENAM DEWA x 6666 harga jackpot yang anda beli
      (contoh:anda membeli 1000 maka:1000 X 6666 = 6.666.000)

Demikian adalah penjelasan dari Multi Jackpot www.majukp.net terima kasih dan selamat bermain salam hoki dari kami

Note: Untuk mendapatkan jackpot di satu periode, pemain harus menyelesaikan permainan di periode tersebut, minimal 2 pemain. Jika semua pemain 'fold' jackpot tidak akan diturunkan.

Domino Jackpot Winner

TOP ENAM DEWA
No.TanggalNamaPriceWin
117/01 09:49WD_OYEmurni enam666,600
217/01 09:16SUTIK78murni enam3,333,000
317/01 09:06S4TRIAmurni enam3,333,000
417/01 08:56ARDI800murni enam6,666,000
517/01 06:28BENTOL123murni enam6,666,000
TOP BALAK
No.TanggalNamaPriceWin
117/01 09:53ROY12345balak100,000
217/01 09:52ZATE1990balak100,000
317/01 09:49WILSEAbalak100,000
417/01 09:48ABANG274balak100,000
517/01 09:47PULSA10balak100,000
LATEST JACKPOT
No.TanggalNamaPriceWin
117/01 09:53ROY12345balak100,000
217/01 09:53MUIN83murni besar50,000
317/01 09:52ZATE1990balak100,000
417/01 09:50JOKER984murni besar25,000
517/01 09:49CUPI266murni kecil50,000
617/01 09:49SKYNOVImurni kecil25,000
717/01 09:49WILSEAbalak100,000
817/01 09:49WD_OYEmurni enam666,600
917/01 09:48CHILOENKmurni kecil50,000
1017/01 09:48BAJI55murni besar25,000
1117/01 09:48ABANG274balak100,000
1217/01 09:47PULSA10balak100,000
1317/01 09:46BLACK_HOTmurni besar25,000
1417/01 09:46H_OKKYmurni kecil50,000
1517/01 09:45AGUSTY0murni kecil50,000
1617/01 09:44NAIBAHO212murni besar5,000
1717/01 09:43MLCREW99lucky9910,000
1817/01 09:43B84RAN234murni besar25,000
1917/01 09:41D3D10C69murni besar25,000
2017/01 09:41NURDIN06murni besar5,000
2117/01 09:41FENI98balak50,000
2217/01 09:39ARIEF1717murni besar50,000
2317/01 09:39CHOBER99murni kecil25,000
2417/01 09:39B80A2DEBbalak100,000
2517/01 09:37UJEHOKI99balak100,000
2617/01 09:37PAS77lucky9925,000
2717/01 09:37CA4A6550murni besar5,000
2817/01 09:36MARINA39balak100,000
2917/01 09:36AGUSTY0balak100,000
3017/01 09:35XPALKORXmurni kecil50,000
3117/01 09:34BONGKIU88murni besar25,000
3217/01 09:34RAFIGHADImurni kecil50,000
3317/01 09:33ZAMAN_NOW1murni kecil50,000
3417/01 09:33CUPI266murni besar50,000
3517/01 09:33MACO9murni kecil50,000
3617/01 09:33MOJJ4balak50,000
3717/01 09:33KUKUTUCINGmurni kecil25,000
3817/01 09:31RISMANIA66murni besar5,000
3917/01 09:31Y4I0LP6S59murni besar25,000
4017/01 09:30NURUZZmurni besar50,000
4117/01 09:30LIMAS93murni kecil50,000
4217/01 09:30JARPULLbalak100,000
4317/01 09:30JHONNNNmurni kecil50,000
4417/01 09:28BEDEBUSmurni kecil25,000
4517/01 09:28NURUZZmurni besar50,000
4617/01 09:28PULSA10murni kecil50,000
4717/01 09:28FAIZALIYANbalak100,000
4817/01 09:28KHODEL88murni kecil50,000
4917/01 09:27HAVEFUN061balak50,000
5017/01 09:27WD_OYEmurni besar5,000

Ceme Multi Jackpot System

Jackpot hanya dapat di beli di awal sebelum periode tersebut berjalan dan jika berhasil maka anda dapat melihat di sisi kiri bawah atau kiri atas akan terdapat notifikasi bahwa jackpot anda berhasil di beli.

Jika anda membeli jackpot di tengah permainan maka pembelian jackpot akan berlaku untuk periode selanjutnya.

Jackpot dilihat dari gabungan kartu pemain dengan kartu bandar. Bandar harus membeli jackpot sebanyak jumlah player yang sedang duduk. Sebagai contoh bila terdapat 3 pemain duduk bermain, dan bandar memutuskan untuk membeli jackpot Rp 1.000, maka pada periode tersebut bandar akan membeli jackpot sebanyak 3xRp1.000 = Rp3.000.

Jackpot bukanlah suatu keharusan untuk dibeli, namun kami memberikan suatu fitur tambahan untuk member tercinta dari www.majukp.net.

Terdapat tiga pilihan harga jackpot yang bisa anda beli yaitu :100,500 dan 1000 rupiah.

Hadiah dari Multi jackpot system www.majukp.net

  1. Murni Kecil x 50 harga jackpot yang anda beli.
      (contoh:anda membeli 1000 maka:1000 X 50 = 50.000)
  2. Murni Besar x 50 harga jackpot yang anda beli
      (contoh:anda membeli 1000 maka:1000 X 50 = 50.000)
  3. BALAK x 200 harga jackpot yang anda beli
      (contoh:anda membeli 1000 maka:1000 X 200 = 200.000)
  4. ENAM DEWA x 6666 harga jackpot yang anda beli
      (contoh:anda membeli 1000 maka:1000 X 6666 = 6.666.000)

Demikian adalah penjelasan dari Multi Jackpot www.majukp.net terima kasih dan selamat bermain salam hoki dari kami

Ceme Jackpot Winner

TOP ENAM DEWA
No.TanggalNamaPriceWin
117/01 09:18MANGBOY1murni enam6,666,000
217/01 09:18DADOT1murni enam6,666,000
317/01 08:44DAJJALSmurni enam6,666,000
417/01 08:42LEYZAEZRAmurni enam3,333,000
517/01 08:12DEN77murni enam6,666,000
TOP BALAK
No.TanggalNamaPriceWin
117/01 09:52CRISHNAbalak200,000
217/01 09:51CIPI99balak100,000
317/01 09:51CAPIETbalak20,000
417/01 09:51LEB4Hbalak100,000
517/01 09:50UWEW89balak200,000
LATEST JACKPOT
No.TanggalNamaPriceWin
117/01 09:53AAAALTTI11murni kecil50,000
217/01 09:53MADAM_JHmurni kecil50,000
317/01 09:53RMKUNCUNGmurni besar50,000
417/01 09:53GRESS83murni besar5,000
517/01 09:53CIPI99murni kecil25,000
617/01 09:53CAPIETmurni kecil5,000
717/01 09:53RMKUNCUNGmurni kecil50,000
817/01 09:53B69IZJAYA10905murni besar50,000
917/01 09:52RIBET1111murni besar25,000
1017/01 09:52RLZ8X7NOJPmurni besar5,000
1117/01 09:52JOKIPROmurni kecil25,000
1217/01 09:52B1146FZSmurni kecil25,000
1317/01 09:52BENY84murni besar5,000
1417/01 09:52CRISHNAbalak200,000
1517/01 09:52MAULL113murni kecil5,000
1617/01 09:51EFTA04murni kecil5,000
1717/01 09:51D4C6574Amurni kecil50,000
1817/01 09:51DAJJALSmurni kecil50,000
1917/01 09:51ASIQ09murni kecil50,000
2017/01 09:51VINA30murni kecil5,000
2117/01 09:51CIPI99balak100,000
2217/01 09:51CAPIETbalak20,000
2317/01 09:51TALIA88murni kecil50,000
2417/01 09:51TALIA88murni kecil50,000
2517/01 09:51XX8JJWMLVmurni kecil50,000
2617/01 09:51LEB4Hbalak100,000
2717/01 09:51GRESIDA123murni besar50,000
2817/01 09:51SEDI321murni kecil50,000
2917/01 09:51HOK87murni kecil50,000
3017/01 09:51NIUR04murni besar25,000
3117/01 09:51BIG_DADDYmurni kecil50,000
3217/01 09:51KOCAR_222murni kecil5,000
3317/01 09:51DANYHOKI88murni kecil5,000
3417/01 09:51KENZIE03murni kecil5,000
3517/01 09:51VINA30murni kecil5,000
3617/01 09:50AMBI86murni kecil50,000
3717/01 09:50HITPKYmurni besar50,000
3817/01 09:50BULTOK000murni kecil50,000
3917/01 09:50P3NJ4R44murni besar50,000
4017/01 09:50MULWIRA93murni kecil50,000
4117/01 09:50REGIE86murni besar50,000
4217/01 09:50AMRIEmurni kecil50,000
4317/01 09:50XIJODGZWYDmurni besar5,000
4417/01 09:50CVR1989murni kecil50,000
4517/01 09:50WIN343murni besar50,000
4617/01 09:50DIRGA2018murni besar50,000
4717/01 09:50UWEW89balak200,000
4817/01 09:50NADAVmurni besar25,000
4917/01 09:49MULWIRA93murni besar50,000
5017/01 09:49MULWIRA93murni besar50,000
Dewa.FM